NOAA 16 DEB, 41079

Orbit data source: Space-Track

NOAA 16 DEB, 41079 is space debris in LEO originally from a launch on Thu, 21 Sep 2000 UTC launched from the Air Force Western Test Range (AFWTR). Debris objects in space refer to the collection of defunct objects orbiting the Earth. Examples of debris include non-operational satellites, rocket bodies, and fragments generated from explosions, collisions, or faulty payload assembly.

Loading next visibility...
NOAA 16 DEB details
Identifier
41079, 2000-055AN
Orbit
LEO
Last TLE update12 hours ago
Origin
Flag of USNOAA (US)
ManufacturerUnknown
MissionSpacecraft
Bus & MotorUnknown
MassUnknown
Launch date (UTC)
2000-09-21 (24 years ago)
Launch vehicleUnknown
Launch site
Air Force Western Test Range (AFWTR)
Object type
Payload
Rocket body
Debris
Shape & HBRUnknown
Radar Cross SectionSmall (<0.1 m²)

Expand to show TLE details & history

TLE from 12 hours ago
0 NOAA 16 DEB
1 41079U 00055AN  24346.39289665  .00001163  00000-0  10097-2 0  9998
2 41079  99.0553 295.9636 0145265  70.8016 290.8795 13.83346254456003
Epoch: 2024-12-11T09:25Z
Definitive object data (Epoch: 2024-12-11T09:25:46.27Z)
Latitude-0.00004°
Longitude73.93258°
Altitude918.299 km
Speed7.411 km/s
True Right ascension19h 43m 51s
True Declination0° 00' 00"
Sunlit
Object was in daylight at TLE epoch
Visualization TLE readout
Latitude-78.00815°
Longitude-153.88598°
Altitude1,083.704 km
Speed7.257 km/s
Apparent Right ascension06h 48m 54s
Apparent Declination-61° 42' 30"
Sunlit
Object is in daylight
Visualization observer readout
Local Sidereal Time19:29:53
Azimuth167.367° S
Elevation-67.33°
Doppler factor1
Orbital elements
Apogee altitude1,055.707 km
Perigee altitude842.824 km
Semi-major axis7,327.402 km
Eccentricity0.0145265
Inclination99.0553°
RAAN295.9636°
Arg. of periapsis70.8016°
True anomaly289.31426°
Mean anomaly290.8795°
Eccentric anomaly290.09787°
Mean motion3.46033 °/min
BSTAR0.0010097
Orbital period104.04 mins
Loading maneuver chart data...
Loading historical data...
Loading historical data...
Loading historical data...
Loading historical data...
Loading historical data...
Loading historical data...
Loading historical data...

NOAA 16 DEB Visibility forecast

Observer location: undefined°, undefined

Span
Click to sort rows by Start time (UTC) header in descending order
Start Az.
Max El. time (UTC)
Max El. Az.
Max El.
End time (UTC)
End Az.
9 mins2024-12-11 21:41:05.745Z204.127° SW2024-12-11 21:46:05.745Z270.445° WNW26.214°2024-12-11 21:50:05.745Z321.429° NNW
7 mins2024-12-12 08:37:05.745Z58.28° ENE2024-12-12 08:40:05.745Z97.937° ESE20.559°2024-12-12 08:44:05.745Z142.337° SSE
9 mins2024-12-12 10:19:05.745Z356.364° N2024-12-12 10:23:05.745Z279.457° WNW37.59°2024-12-12 10:28:05.745Z216.735° SW
8 mins2024-12-12 20:17:05.745Z136.721° SSE2024-12-12 20:21:05.745Z57.473° ENE36.656°2024-12-12 20:25:05.745Z0.386° NNE
|